Weather History for Tucumcari, NM

Change the Weather History Date:

Monday, February 18, 2013

  Actual Average Record
Temperature  
Mean Temperature 42 °F -  
Max Temperature 53 °F 60 °F 78 °F (1970)
Min Temperature 30 °F 28 °F -2 °F (1942)
Degree Days  
Heating Degree Days 24    
Moisture  
Dew Point 13 °F    
Average Humidity 30    
Maximum Humidity 50    
Minimum Humidity 16    
Precipitation  
Precipitation 0.00 in - - ()
Sea Level Pressure  
Sea Level Pressure 29.88 in    
Wind  
Wind Speed 13 mph (NNE)    
Max Wind Speed 23 mph    
Max Gust Speed 24 mph    
Visibility 10 miles    
Events      
Averages and records for this station are not official NWS values.
T = Trace of Precipitation, MM = Missing Value Source: NWS Daily Summary

Daily Weather History Graph

Daily Weather History Graph

Search for Another Location

Airport:

Trip Planner

Search our weather history database for the weather conditions in past years. The results will help you decide how hot, cold, wet, or windy it might be!

Date:

Astronomy

Feb. 18, 2013 Rise Set
Actual Time 6:36 AM MST 5:40 PM MST
Civil Twilight 6:11 AM MST 6:05 PM MST
Nautical Twilight 5:41 AM MST 6:35 PM MST
Astronomical Twilight 5:12 AM MST 7:05 PM MST
Moon 11:34 AM MST (2/18) 1:12 AM MST (2/18)
Length of Visible Light 11h 54m
Length of Day
11h 03m
First Quarter, 59% of the Moon is Illuminated
Feb 18
First Quarter
Feb 25
Full
Mar 4
Last Quarter
Mar 11
New
Mar 19
First Quarter

Hourly Weather History & Observations

Time (MST) Temp. Windchill Dew Point Humidity Pressure Visibility Wind Dir Wind Speed Gust Speed Precip Events Conditions
12:53 AM 50.0 °F - 5.0 °F 16% 29.53 in 10.0 mi West 19.6 mph - N/A   Clear
1:53 AM 50.0 °F - 5.0 °F 16% 29.55 in 10.0 mi West 23.0 mph - N/A   Clear
2:53 AM 48.9 °F - 7.0 °F 18% 29.55 in 10.0 mi West 18.4 mph - N/A   Clear
3:53 AM 46.9 °F - 8.1 °F 21% 29.59 in 10.0 mi WNW 13.8 mph - N/A   Clear
4:30 AM 44.6 °F 38.4 °F 10.4 °F 25% 29.76 in 10.0 mi NNE 12.7 mph 23.0 mph N/A   Clear
4:37 AM 44.6 °F 38.8 °F 10.4 °F 25% 29.77 in 10.0 mi NNE 11.5 mph 17.3 mph N/A   Clear
4:53 AM 42.1 °F 34.2 °F 14.0 °F 32% 29.68 in 10.0 mi NNE 16.1 mph - N/A   Clear
5:53 AM 36.0 °F 29.6 °F 14.0 °F 41% 29.77 in 10.0 mi North 8.1 mph - N/A   Clear
6:53 AM 36.0 °F 31.1 °F 15.1 °F 43% 29.84 in 10.0 mi NNE 5.8 mph - N/A   Clear
7:53 AM 42.1 °F 36.1 °F 18.0 °F 38% 29.90 in 10.0 mi NNE 10.4 mph - N/A   Clear
8:53 AM 43.0 °F 36.8 °F 15.1 °F 32% 29.95 in 10.0 mi NNE 11.5 mph - N/A   Clear
9:53 AM 46.9 °F - 12.0 °F 24% 29.97 in 10.0 mi NNE 13.8 mph - N/A   Clear
10:53 AM 48.9 °F - 14.0 °F 25% 29.98 in 10.0 mi NE 16.1 mph 24.2 mph N/A   Clear
11:53 AM 51.1 °F - 15.1 °F 24% 29.97 in 10.0 mi ENE 15.0 mph - N/A   Clear
12:53 PM 51.1 °F - 16.0 °F 25% 29.95 in 10.0 mi NNE 10.4 mph 19.6 mph N/A   Partly Cloudy
1:53 PM 51.1 °F - 15.1 °F 24% 29.94 in 10.0 mi West 4.6 mph - N/A   Clear
2:53 PM 53.1 °F - 14.0 °F 21% 29.94 in 10.0 mi Variable 3.5 mph - N/A   Clear
3:53 PM 52.0 °F - 14.0 °F 22% 29.94 in 10.0 mi Calm Calm - N/A   Clear
4:53 PM 51.1 °F - 14.0 °F 23% 29.95 in 10.0 mi SE 10.4 mph - N/A   Clear
5:53 PM 45.0 °F 40.6 °F 14.0 °F 29% 29.99 in 10.0 mi ESE 8.1 mph - N/A   Clear
6:53 PM 39.9 °F 34.5 °F 14.0 °F 35% 30.03 in 10.0 mi ESE 8.1 mph - N/A   Clear
7:53 PM 37.0 °F 32.4 °F 14.0 °F 39% 30.04 in 10.0 mi East 5.8 mph - N/A   Clear
8:53 PM 35.1 °F - 14.0 °F 42% 30.06 in 10.0 mi Calm Calm - N/A   Clear
9:53 PM 32.0 °F - 14.0 °F 48% 30.07 in 10.0 mi Calm Calm - N/A   Clear
10:53 PM 30.9 °F 27.5 °F 14.0 °F 50% 30.08 in 10.0 mi NNE 3.5 mph - N/A   Clear
11:53 PM 34.0 °F - 15.1 °F 46% 30.07 in 10.0 mi Calm Calm - N/A   Clear